Flag for U.S.A. Weather past 2 weeks in Mobile, Alabama, U.S.A.

Now
81 °F

Passing clouds.


Feels Like: 87 °F
Forecast: 74 / 87 °F
Wind: 3 mph from West

Location: Mobile Downtown Airport

Current Time: Sep 15, 2014 at 8:55:32 PM

Latest Report: Sep 15, 2014 at 7:53 PM


Visibility: 10 mi

Pressure: 30.07 "Hg

Humidity: 85%

Dew point: 76 °F

Location of MobileLocation

Historic Weather in Mobile — Graph

°F

Mobile temperature yesterday

Maximum temperature yesterday: 91 °F (at 2:53 PM)
Minimum temperature yesterday: 71 °F (at 6:53 AM)
Average temperature yesterday: 80 °F

Past Weeks' High & Low Weather Summary

 TemperatureHumidityPressure
High91 °F (Sep 1, 11:53 AM)100% (Sep 2, 6:53 AM)30.16 "Hg (Sep 2, 6:53 AM)
Low71 °F (Sep 14, 6:53 AM)47% (Sep 3, 3:53 PM)29.92 "Hg (Sep 7, 4:53 PM)
Average82 °F81%30.03 "Hg
* Reported Aug 31 7:53 PM — Sep 15 7:53 PM, Mobile, Weather by CustomWeather, © 2014

Note: Actual official high and low records may vary slightly from our data, if they occured in-between our weather recording intervals... More about our weather records

Advertising

Mobile weather history for previous 24 hours

 ConditionsComfort  
Time TempWeatherWind HumidityBarometerVisibility
7:53 PM
Sep 15
81 °FPassing clouds.3 mph85%30.07 "Hg10 mi
6:53 PM83 °FPassing clouds.5 mph82%30.06 "Hg10 mi
5:53 PM85 °FPassing clouds.5 mph77%30.06 "Hg10 mi
4:53 PM85 °FScattered clouds.8 mph75%30.06 "Hg10 mi
3:53 PM86 °FScattered clouds.6 mph70%30.05 "Hg10 mi
2:53 PM88 °FPartly sunny.9 mph65%30.07 "Hg10 mi
1:53 PM87 °FPartly sunny.7 mph69%30.08 "Hg10 mi
12:53 PM88 °FPartly sunny.6 mph65%30.10 "Hg10 mi
11:53 AM88 °FScattered clouds.7 mph67%30.11 "Hg10 mi
10:53 AM86 °FScattered clouds.7 mph75%30.13 "Hg10 mi
9:53 AM85 °FScattered clouds.7 mph77%30.13 "Hg10 mi
8:53 AM83 °FPassing clouds.9 mph82%30.12 "Hg10 mi
7:53 AM80 °FPassing clouds.6 mph90%30.11 "Hg10 mi
6:53 AM78 °FClear.6 mph93%30.11 "Hg10 mi
5:53 AM75 °FClear.3 mph100%30.10 "Hg10 mi
4:53 AM75 °FClear.5 mph96%30.09 "Hg9 mi
3:53 AM76 °FPassing clouds.6 mph94%30.09 "Hg10 mi
2:53 AM77 °FPassing clouds.No wind94%30.09 "Hg10 mi
1:53 AM81 °FClear.5 mph85%30.09 "Hg10 mi
12:53 AM81 °FPassing clouds.8 mph85%30.10 "Hg10 mi
11:53 PM
Sep 14
82 °FPassing clouds.6 mph79%30.11 "Hg10 mi
10:53 PM82 °FClear.7 mph79%30.11 "Hg10 mi
9:53 PM82 °FPassing clouds.6 mph85%30.11 "Hg10 mi
8:53 PM79 °FClear.No wind84%30.10 "Hg10 mi
Weather by CustomWeather, © 2014

See weather overviewHow to use our weather pages